EW5186 Weather Reports


time (UTC)temp
F
wind
direction
speed
knots
gust
knots
rain 1hr
in
rain 24hr
in
rain mn
in
humidity
%
barometer
mb
20260510034502 52 38 0.0 0.0 0.00 0.66 0.66 95 1012.7
20260510033002 52 34 0.0 0.0 0.00 0.66 0.66 95 1012.7
20260510031502 52 34 0.0 0.0 0.00 0.66 0.66 95 1013.0
20260510030045 52 34 0.0 0.0 0.00 0.66 0.66 95 1013.0
20260510024603 52 71 0.0 0.0 0.00 0.66 0.66 95 1012.8
20260510023040 51 146 0.0 0.9 0.00 0.66 0.66 95 1012.8
20260510021541 51 150 0.0 0.0 0.00 0.66 0.66 95 1012.7
20260510020022 51 150 0.0 0.0 0.00 0.66 0.66 95 1012.8
20260510014521 52 150 0.0 0.0 0.00 0.66 0.66 94 1012.8
20260510013003 52 150 0.0 0.0 0.00 0.66 0.66 94 1012.7
20260510011505 52 150 0.0 0.0 0.00 0.66 0.66 94 1012.8
20260510010044 52 74 0.0 0.9 0.00 0.66 0.66 94 1012.7
20260510004548 52 347 0.0 0.9 0.00 0.66 0.66 94 1012.7
20260510003028 52 121 0.0 0.0 0.01 0.66 0.66 94 1012.5
20260510001528 53 131 0.0 0.9 0.02 0.66 0.66 94 1012.2
20260510000012 53 101 0.0 1.7 0.08 0.66 0.66 94 1012.1
20260509234509 53 148 0.0 1.7 0.21 0.66 0.66 94 1012.3
20260509233052 53 98 0.9 7.8 0.24 0.65 0.65 94 1012.5
20260509231557 53 124 0.0 2.6 0.34 0.64 0.64 94 1012.9
20260509230028 53 245 0.0 2.6 0.37 0.56 0.56 94 1013.2
20260509224528 54 283 0.0 3.5 0.28 0.44 0.44 94 1013.2
20260509223015 54 229 0.0 3.5 0.25 0.40 0.40 93 1013.1
20260509221509 54 40 0.0 2.6 0.14 0.28 0.28 93 1013.4
20260509220050 54 99 0.0 1.7 0.06 0.20 0.20 93 1013.4
20260509214549 54 63 0.0 2.6 0.01 0.15 0.15 93 1013.5
20260509213032 55 280 0.0 3.5 0.01 0.15 0.15 93 1013.4
20260509211533 55 96 0.0 5.2 0.02 0.15 0.15 92 1013.3
20260509210016 55 60 0.0 3.5 0.04 0.14 0.14 92 1013.0
20260509204516 55 91 0.0 1.7 0.06 0.14 0.14 92 1012.8
20260509203055 55 101 0.0 1.7 0.07 0.14 0.14 92 1012.8
20260509201554 56 341 0.0 5.2 0.08 0.13 0.13 91 1013.3
20260509200045 56 155 0.0 6.1 0.06 0.11 0.10 90 1013.3
20260509194535 57 134 0.9 7.0 0.06 0.09 0.08 89 1013.1
20260509193016 57 145 0.0 4.3 0.06 0.08 0.07 88 1013.1
20260509191518 58 161 0.0 3.5 0.04 0.06 0.05 87 1012.8
20260509190058 59 155 0.0 5.2 0.03 0.05 0.04 85 1013.0
20260509184558 61 317 0.0 5.2 0.01 0.03 0.02 80 1012.9
20260509183040 62 155 0.9 7.0 0.00 0.02 0.01 75 1012.8
20260509181539 63 10 0.0 2.6 0.00 0.02 0.01 72 1012.6
20260509180024 64 246 0.9 6.1 0.00 0.02 0.01 71 1012.6
20260509174519 64 239 0.0 2.6 0.00 0.02 0.01 73 1012.7
20260509173119 63 143 0.9 5.2 0.00 0.02 0.01 71 1012.9
20260509171602 63 321 0.9 3.5 0.00 0.02 0.01 74 1012.9
20260509170042 62 27 0.0 2.6 0.00 0.02 0.01 75 1013.3
20260509164534 61 206 0.0 5.2 0.00 0.02 0.01 76 1013.6
20260509163022 60 126 0.0 5.2 0.00 0.02 0.01 76 1013.8
20260509161514 59 140 0.0 4.3 0.00 0.02 0.01 75 1014.1
20260509160114 60 95 1.7 7.0 0.00 0.02 0.01 74 1014.1
20260509154556 60 238 0.9 5.2 0.00 0.02 0.01 74 1014.1
20260509153054 60 134 0.0 5.2 0.00 0.02 0.01 77 1014.2
20260509151540 60 336 0.0 2.6 0.00 0.02 0.01 76 1014.2
20260509150039 59 264 0.0 4.3 0.00 0.02 0.01 77 1014.4
20260509144512 59 69 0.9 3.5 0.00 0.02 0.01 77 1014.3
20260509143012 58 56 0.0 5.2 0.00 0.02 0.01 79 1014.5
20260509141552 57 126 0.0 2.6 0.00 0.02 0.01 82 1014.3
20260509140046 56 210 0.0 0.9 0.00 0.02 0.01 82 1014.0
20260509134531 55 140 0.0 3.5 0.00 0.02 0.01 84 1014.2
20260509133028 54 246 0.0 0.9 0.00 0.02 0.01 87 1014.5
20260509131529 53 346 0.0 0.9 0.00 0.02 0.01 87 1014.8
20260509130051 51 293 0.0 0.9 0.00 0.02 0.01 86 1015.1
20260509124529 51 274 0.0 2.6 0.00 0.02 0.01 88 1014.9
20260509123017 50 124 0.0 1.7 0.00 0.02 0.01 89 1015.1
20260509121513 49 122 0.0 0.9 0.00 0.02 0.01 91 1015.3
20260509120015 49 261 0.0 0.9 0.00 0.02 0.01 92 1015.2
20260509114624 48 294 0.0 0.9 0.00 0.02 0.01 93 1015.4
20260509113058 48 320 0.0 0.9 0.00 0.02 0.01 93 1015.3
20260509111531 47 58 0.0 0.0 0.00 0.02 0.01 93 1015.2
20260509110029 47 283 0.0 0.9 0.00 0.02 0.01 93 1015.0
20260509104510 46 325 0.0 0.9 0.00 0.02 0.01 93 1014.9
20260509103011 46 48 0.0 0.0 0.00 0.02 0.01 93 1014.7
20260509101600 46 47 0.0 0.0 0.00 0.02 0.01 93 1015.0
20260509100052 46 49 0.0 0.0 0.00 0.02 0.01 93 1014.8
20260509094541 46 49 0.0 0.0 0.00 0.02 0.01 93 1014.7
20260509093041 46 49 0.0 0.0 0.00 0.02 0.01 93 1014.7
20260509091544 46 49 0.0 0.0 0.01 0.02 0.01 92 1014.8
20260509090042 46 49 0.0 0.0 0.01 0.02 0.01 92 1014.9
20260509084539 46 49 0.0 0.0 0.01 0.02 0.01 91 1014.9
20260509083038 46 49 0.0 0.0 0.00 0.01 0.00 90 1014.7
20260509081540 46 49 0.0 0.0 0.00 0.01 0.00 90 1014.8
20260509080044 46 49 0.0 0.0 0.00 0.01 0.00 90 1014.9
20260509074540 46 49 0.0 0.0 0.00 0.01 0.00 91 1014.5
20260509073045 46 49 0.0 0.0 0.00 0.01 0.00 91 1014.4
20260509071538 46 49 0.0 0.0 0.00 0.01 0.00 91 1014.4
20260509070037 46 49 0.0 0.0 0.00 0.01 0.00 90 1014.4
20260509064546 46 49 0.0 0.0 0.00 0.01 0.00 90 1014.6
20260509063036 46 49 0.0 0.0 0.00 0.01 0.00 90 1014.9
20260509061513 46 49 0.0 0.0 0.00 0.01 0.00 90 1014.9
20260509060004 46 49 0.0 0.0 0.00 0.01 0.00 89 1015.0
20260509054606 46 49 0.0 0.0 0.00 0.01 0.00 89 1014.9
20260509053052 47 49 0.0 0.0 0.00 0.01 0.00 88 1015.0
20260509051527 47 49 0.0 0.0 0.00 0.01 0.00 88 1015.0
20260509050028 47 49 0.0 0.0 0.00 0.01 0.00 87 1015.1
20260509044506 48 49 0.0 0.0 0.00 0.01 0.00 87 1015.2
20260509043005 47 49 0.0 0.0 0.00 0.01 0.00 86 1015.3
20260509041546 47 49 0.0 0.0 0.00 0.01 0.00 86 1015.3
20260509040044 46 49 0.0 0.0 0.00 0.01 0.01 85 1015.2